[[{"header":{"parameterUnit":"m.s-1","parameterCategory":1,"la1":30.2992,"la2":30.254,"lo1":-89.0895,"lo2":-89.0443,"dy":0.0025,"dx":0.0025,"nx":19,"ny":19,"refTime":"2026-05-15T03:00:00:Z","depth":0,"parameterNumber":2,"parameterNumberName":"U-component_of_WINDS"},"data":[0,0,0,0.932,0.9323,0.9432,0.9432,0.9568,0.957,0,0,0,0,0,0,0,0,0,0,0,0.9284,0.9285,0.932,0.9323,0.9432,0.9432,0.9568,0.957,0,0,0,0,0,0,0,0,0,0,0,0.9284,0.9284,0.9285,0.9323,0.9431,0.9432,0.9568,0.9487,0,0,0,0,0,0,0,0,0,0,0.9382,0.9344,0.9284,0.9285,0.9324,0.9431,0.9432,0.9484,0.9492,0.9517,0,0.9536,0,0.9555,0.9578,0.9579,0,0,0,0.9327,0.9336,0.9369,0.9285,0.9325,0.9431,0.9384,0.9489,0.9499,0.9529,0.9538,0.9543,0.9557,0.9579,0.958,0.9707,0.9707,0,0,0.9321,0.9301,0.9362,0.9376,0.9356,0.938,0.9387,0.9495,0.9504,0.9538,0.9546,0.9559,0.958,0.9581,0.9706,0.9707,0,0,0,0.9301,0.9297,0.9328,0.937,0.939,0.9383,0.9391,0.9499,0.9511,0.9548,0.9561,0.9581,0.9582,0.9706,0.9706,0.9709,0,0,0,0.9297,0.9286,0.9325,0.9314,0.9387,0.9445,0.9393,0.9503,0.9516,0.956,0.9581,0.9584,0.9705,0.9706,0.9708,0.9713,0,0,0,0.9278,0.9283,0.9297,0.9313,0.9359,0.9444,0.9462,0.9506,0.9524,0.9579,0.9584,0.9705,0.9706,0.9707,0.9711,0.9742,0,0,0,0.9253,0.9297,0.9297,0.9353,0.9358,0.9444,0.9461,0.9526,0.9574,0.9581,0.9705,0.9706,0.9706,0.9711,0.9741,0.9764,0.9772,0,0,0.9298,0.9302,0.9336,0.934,0.942,0.9429,0.9511,0.9573,0.9596,0.9669,0.9673,0.9708,0.9711,0.9742,0.9821,0.9827,0,0,0,0.9344,0.9369,0.9395,0.9438,0.9486,0.9529,0.9581,0.9605,0.9667,0.9629,0.9727,0.973,0.9749,0.9761,0.9766,0.9784,0.9711,0.9711,0.9711,0.9381,0.9409,0.9468,0.951,0.9553,0.9606,0.9645,0.9686,0.9701,0.9724,0.9746,0.979,0.9804,0.9808,0.9827,0.976,0.976,0.976,0.976,0.9451,0.9491,0.9512,0.9576,0.9607,0.9663,0.9718,0.9728,0.9786,0.9776,0.9794,0.978,0.9813,0.9832,0.9761,0.9761,0.9761,0.9761,0.9761,0.9478,0.9502,0.953,0.9599,0.9649,0.9691,0.9747,0.9772,0.9797,0.9815,0.9842,0.9842,0.9847,0.9826,0.9826,0.9826,0.9826,0.9827,0.9827,0.9495,0.9527,0.9569,0.9627,0.966,0.9707,0.9765,0.9799,0.9844,0.9859,0.9859,0.9874,0.9811,0.9795,0.9829,0.9829,0.9828,0.9828,0.9828,0.9556,0.9547,0.9613,0.9646,0.9718,0.9768,0.9801,0.9869,0.9902,0.9929,0.9941,0.989,0.9896,0.9892,0.9879,0.9933,0.9933,0.9933,0.9933,0.958,0.9585,0.966,0.9712,0.9767,0.9804,0.9882,0.9928,0.9976,0.9998,0.9995,0.998,0.9975,0.9984,0.9978,0.9967,1.0042,1.0042,1.0042,0.962,0.9632,0.9691,0.9736,0.9795,0.9846,0.992,0.9982,1.0034,1.0047,1.0017,1.0013,0.9989,0.998,0.999,0.9981,0.996,0,0]},{"header":{"parameterUnit":"m.s-1","parameterCategory":1,"la1":30.2992,"la2":30.254,"lo1":-89.0895,"lo2":-89.0443,"dy":0.0025,"dx":0.0025,"nx":19,"ny":19,"refTime":"2026-05-15T03:00:00:Z","depth":0,"parameterNumber":3,"parameterNumberName":"V-component_of_WINDS"},"data":[0,0,0,-2.2105,-2.2105,-2.2111,-2.2111,-2.2105,-2.2105,0,0,0,0,0,0,0,0,0,0,0,-2.2096,-2.2096,-2.2105,-2.2105,-2.2111,-2.2111,-2.2105,-2.2105,0,0,0,0,0,0,0,0,0,0,0,-2.2096,-2.2096,-2.2096,-2.2105,-2.2111,-2.2111,-2.2105,-2.2105,0,0,0,0,0,0,0,0,0,0,-2.2102,-2.2087,-2.2096,-2.2096,-2.2105,-2.2111,-2.2111,-2.2106,-2.2105,-2.2097,0,-2.2089,0,-2.2097,-2.2104,-2.2104,0,0,0,-2.211,-2.2087,-2.2095,-2.2096,-2.2105,-2.2111,-2.211,-2.2106,-2.2105,-2.2097,-2.2089,-2.2089,-2.2097,-2.2104,-2.2104,-2.2041,-2.204,0,0,-2.211,-2.2093,-2.2095,-2.2095,-2.2094,-2.2109,-2.211,-2.2106,-2.2095,-2.2089,-2.2089,-2.2097,-2.2104,-2.2103,-2.2041,-2.2041,0,0,0,-2.2105,-2.2093,-2.2101,-2.2095,-2.2097,-2.2109,-2.211,-2.2096,-2.21,-2.2089,-2.2097,-2.2104,-2.2103,-2.2042,-2.2041,-2.1996,0,0,0,-2.2105,-2.209,-2.2101,-2.2091,-2.2097,-2.2096,-2.21,-2.21,-2.21,-2.2097,-2.2104,-2.2103,-2.2043,-2.2042,-2.1998,-2.1975,0,0,0,-2.2098,-2.2089,-2.2088,-2.209,-2.2092,-2.2097,-2.2101,-2.2101,-2.2104,-2.2104,-2.2103,-2.2043,-2.2042,-2.2001,-2.1979,-2.195,0,0,0,-2.2085,-2.2049,-2.2087,-2.2049,-2.2092,-2.207,-2.2101,-2.2087,-2.2081,-2.2103,-2.2043,-2.2041,-2.2001,-2.1981,-2.1953,-2.1919,-2.1905,0,0,-2.2029,-2.2041,-2.202,-2.2055,-2.2022,-2.2071,-2.2032,-2.2042,-2.2058,-2.2046,-2.2044,-2.1997,-2.1979,-2.1951,-2.1842,-2.1831,0,0,0,-2.1997,-2.1981,-2.1976,-2.197,-2.1979,-2.1982,-2.2002,-2.2006,-2.1996,-2.2049,-2.1983,-2.1973,-2.1957,-2.1941,-2.1931,-2.1916,-2.2035,-2.2035,-2.2035,-2.1889,-2.1912,-2.1878,-2.1901,-2.1896,-2.1916,-2.1913,-2.1922,-2.1947,-2.1931,-2.1925,-2.1857,-2.1838,-2.1831,-2.1815,-2.1915,-2.1915,-2.1914,-2.1914,-2.1805,-2.1783,-2.182,-2.1798,-2.1823,-2.1806,-2.1825,-2.1843,-2.1829,-2.1864,-2.185,-2.188,-2.1818,-2.1805,-2.1911,-2.1912,-2.1912,-2.1912,-2.1913,-2.1731,-2.1725,-2.1732,-2.1726,-2.1719,-2.1746,-2.173,-2.1755,-2.1777,-2.1765,-2.1759,-2.176,-2.1759,-2.1762,-2.1762,-2.1761,-2.1761,-2.1761,-2.1761,-2.1649,-2.166,-2.1644,-2.1651,-2.165,-2.1652,-2.1675,-2.1674,-2.1679,-2.1698,-2.1698,-2.1721,-2.1811,-2.1829,-2.1757,-2.1758,-2.1758,-2.1759,-2.1759,-2.1543,-2.1572,-2.1547,-2.1546,-2.1556,-2.1545,-2.158,-2.1577,-2.1581,-2.1571,-2.16,-2.1664,-2.1677,-2.1685,-2.1699,-2.1599,-2.1599,-2.1599,-2.1599,-2.1476,-2.1488,-2.1467,-2.1463,-2.1464,-2.1492,-2.1461,-2.148,-2.1502,-2.1506,-2.1526,-2.155,-2.1557,-2.1565,-2.1576,-2.1589,-2.1463,-2.1463,-2.1463,-2.141,-2.1423,-2.139,-2.1415,-2.1425,-2.1433,-2.1404,-2.1397,-2.143,-2.1458,-2.1507,-2.1513,-2.1553,-2.1565,-2.1586,-2.1602,-2.1628,0,0]}]]